SL-16 DEB, 22382

Orbit data source: Space-Track

SL-16 DEB, 22382 is space debris in LEO originally from a launch on Fri, 25 Dec 1992 UTC launched from the Tyuratam Missile And Space Complex (TTMTR). Debris objects in space refer to the collection of defunct objects orbiting the Earth. Examples of debris include non-operational satellites, rocket bodies, and fragments generated from explosions, collisions, or faulty payload assembly.

Loading next visibility...
Identifier
22382, 1992-093BX
Orbit
LEO
Country
Flag of CISCIS
Related business
Manufacturer
Unknown
Mission
Spacecraft
Bus & Motor
Unknown
Mass
Unknown
Launch date (UTC)
1992-12-25 (33 years ago)
Launch vehicle
Unknown
Launch site
Tyuratam Missile And Space Complex (TTMTR)
Object type
Payload
Rocket body
Debris
Shape & HBR
Unknown shape, 0.1 m
Radar Cross Section
Small (<0.1 m²)

Expand to show TLE details & history
Last TLE update: 1 day ago

TLE from 1 day ago
0 SL-16 DEB
1 22382U 92093BX  25305.08318124  .00001185  00000-0  87528-3 0  9990
2 22382  70.8665 235.8060 0161475 237.0790 132.2968 13.91488036657773
Epoch: 2025-11-01T01:59Z
TLE epoch observation values (Epoch: 2025-11-01T01:59:46.859Z)
Latitude
10.08289°
Longitude
168.76103°
Altitude
1,005.423 km
Speed
7.309 km/s
True Right ascension
15h 57m 17s
True Declination
10° 01' 33"
Sunlit
Object was in daylight at epoch
Visualization orbit readout
Latitude
Unknown
Longitude
Unknown
Altitude
Unknown
Speed
Unknown
Apparent Right ascension
Unknown
Apparent Declination
Unknown
Sunlit
N/A
Visualization observer readout
Local Sidereal Time
05:09:18
Azimuth
Unknown
Elevation
Unknown
Doppler factor
Unknown
Orbital elements
Apogee altitude
1,039.25 km
Perigee altitude
803.512 km
Semi-major axis
7,299.518 km
Eccentricity
0.01615
Inclination
70.8665°
RAAN
235.806°
Arg. of periapsis
237.079°
True anomaly
133.64698°
Mean anomaly
132.2968°
Eccentric anomaly
132.97373°
Mean motion
3.48018 °/min
Orbital period
103.44 mins
BSTAR
0.00087528
Loading maneuver chart data...
Computing Atmospheric mass density...
Loading historical data...
Loading historical data...
Loading historical data...
Loading historical data...
Loading historical data...
Loading historical data...
Loading historical data...

Documentation

Showing up to 5 results
|